Tracking 32136 objects as of 12-Nov-2025
HD Live streaming from Space Station
objects crossing your sky now

PALAPA B1

Track PALAPA B1 now!
PALAPA B1 is classified as:


NORAD ID: 14134
Int'l Code: 1983-059C
Perigee: 35,824.6 km
Apogee: 35,835.9 km
Inclination: 11.9 °
Period: 1,438.0 minutes
Semi major axis: 42201 km
RCS: 1.2604 m2 (large)
Launch date: June 18, 1983
Source: Indonesia (INDO)
Launch site: AIR FORCE EASTERN TEST RANGE (AFETR)
Your satellite tracking list
Your tracking list is empty




NASA's NSSDC Master Catalog

Two Line Element Set (TLE):
1 14134U 83059C   25315.04717032 -.00000261  00000-0  00000-0 0  9998
2 14134  11.8651 330.9487 0001345 195.6187 355.2809  1.00141709118602
Source of the keplerian elements: AFSPC